Tracking 21094 objects as of 12-Aug-2020
HD Live streaming from Space Station
objects crossing your sky now
Track the most recent launched group of Starlink satellites

GLOBALSTAR M055

Track GLOBALSTAR M055 now!
10-day predictions
GLOBALSTAR M055 is classified as:


NORAD ID: 25910
Int'l Code: 1999-049D
Perigee: 1,553.0 km
Apogee: 1,565.4 km
Inclination: 52.0 °
Period: 117.1 minutes
Semi major axis: 7930 km
RCS: 2.0613 m2 (large)
Launch date: September 22, 1999
Source: Globalstar (GLOB)
Launch site: TYURATAM MISSILE AND SPACE COMPLEX (TTMTR)
aabbcc
Your satellite tracking list
Your tracking list is empty




NASA's NSSDC Master Catalog

Two Line Element Set (TLE):
1 25910U 99049D   20224.62669889 -.00000089 +00000-0 +44725-4 0  9996
2 25910 052.0036 027.6239 0007769 056.9931 303.1667 12.29354516950521
Source of the keplerian elements: AFSPC